Wind_Speed
25 25 26 26 25 25 25 25 25 26 26 26 26 26 26 26 26 27 27 28 28 28 28 28 29 29 28 27 27 27 27 26 26 26 26 26 26 26 26 26 26 25 25
25 26 26 27 27 27 27 27 27 28 27 27 27 28 28 28 28 28 28 29 29 29 29 29 29 30 29 29 29 29 29 29 28 28 27 27 27 27 27 26 26 26 26
26 26 27 28 28 28 28 28 28 29 29 29 29 29 29 29 30 30 30 30 30 30 31 31 31 31 31 31 31 30 30 30 29 29 28 28 28 28 27 27 27 27 27
27 27 28 29 29 29 30 30 30 30 30 30 30 30 30 30 30 30 30 31 31 31 31 32 32 32 32 31 31 31 31 31 30 29 29 28 28 28 28 28 28 28 27
28 28 28 29 29 30 31 31 31 31 32 32 31 31 31 31 31 31 31 32 32 32 32 32 32 32 33 32 32 32 32 32 31 31 30 29 28 28 28 28 28 28 28
28 29 29 30 30 30 31 32 32 32 32 33 33 33 33 33 33 33 34 33 33 32 33 33 33 33 34 34 34 33 33 32 32 32 31 30 29 29 29 29 30 30 30
29 30 30 30 31 31 31 32 32 33 33 34 34 34 34 34 34 34 34 34 34 33 33 33 33 34 34 34 34 33 33 32 32 32 31 31 30 30 30 30 31 31 31
31 32 32 32 32 33 33 33 33 34 34 34 35 35 36 36 35 35 35 34 34 34 33 33 33 33 33 33 33 33 33 33 32 32 32 32 33 32 32 33 33 32 32
33 33 33 33 34 34 34 34 34 35 35 35 35 35 35 36 36 36 36 35 35 34 34 33 33 33 34 34 34 34 33 34 33 33 33 33 34 34 35 35 34 34 33
34 34 34 35 35 35 35 35 35 35 36 36 35 34 35 36 36 36 36 36 35 35 35 34 34 34 35 35 35 35 34 34 35 35 35 35 35 36 35 36 35 35 35
34 35 35 35 36 36 36 36 36 36 37 37 36 36 36 37 38 37 36 36 36 35 35 35 35 35 35 36 36 35 35 36 36 36 36 36 37 37 36 36 37 37 36
34 35 36 36 37 37 37 37 37 37 38 38 38 38 38 37 37 36 36 36 36 36 35 35 35 34 35 36 36 36 36 36 36 36 36 37 37 37 37 37 36 37 37
35 36 36 37 37 36 37 37 37 37 37 37 38 38 38 37 37 37 36 37 36 36 36 35 35 35 36 36 36 36 36 35 35 35 35 36 36 37 37 37 36 36 37
35 35 36 36 36 36 36 37 37 37 37 37 37 37 37 38 37 37 37 37 37 37 37 36 36 36 36 36 36 35 35 34 34 34 34 35 35 36 36 36 36 36 36
34 34 35 35 35 35 36 36 37 36 36 36 37 37 37 37 37 36 37 37 37 37 37 37 36 36 36 36 36 35 36 36 36 35 35 35 35 35 34 35 35 35 35
33 33 33 33 34 34 34 35 35 35 35 35 35 35 35 36 36 36 36 36 36 36 36 35 36 36 36 36 36 36 36 36 35 35 35 35 34 34 33 33 33 34 34
32 33 33 33 33 33 34 34 34 34 34 35 35 35 35 36 36 36 36 36 36 36 36 36 36 36 36 36 36 36 35 35 34 34 34 34 34 34 33 33 32 32 33
32 33 33 33 33 33 33 33 34 34 34 35 34 35 36 36 36 36 36 36 36 36 35 35 36 36 36 36 35 35 35 34 34 34 34 34 34 33 32 32 32 32 32
33 33 33 34 34 33 33 33 33 33 33 33 34 34 35 35 35 35 36 36 36 36 35 35 36 36 36 36 35 35 34 34 33 33 34 34 33 33 32 32 32 32 32
33 33 34 34 34 34 34 33 33 33 33 33 33 34 34 34 34 34 34 35 35 35 35 35 36 36 36 35 34 34 34 33 33 33 33 34 34 33 33 33 33 32 33
33 33 34 34 34 35 34 34 34 33 33 33 33 34 33 33 33 33 34 34 34 34 35 35 35 35 35 35 35 34 34 34 33 33 33 33 33 33 32 32 32 32 32
33 33 33 34 34 35 35 34 34 34 34 33 33 33 33 33 33 33 33 33 34 34 34 34 34 34 34 34 34 34 34 33 33 32 32 32 32 32 32 32 32 32 31
33 33 34 34 34 34 35 35 35 35 35 34 33 32 32 32 32 32 33 33 33 33 34 34 33 33 33 33 33 33 32 32 32 32 32 32 31 31 31 30 30 30 31
33 34 34 35 34 34 35 35 36 35 35 34 34 33 32 32 31 32 32 33 33 33 33 33 33 33 33 32 31 31 31 31 31 31 31 31 30 31 31 30 29 30 30
34 34 34 34 35 35 35 35 35 34 34 34 34 33 32 31 31 31 32 32 32 32 32 32 31 31 30 30 30 30 30 30 30 30 29 29 29 29 29 29 29 29 29
33 33 33 33 34 34 34 34 34 33 33 33 33 32 31 31 31 32 32 31 31 31 30 30 29 29 29 29 29 29 29 29 29 29 29 28 29 29 29 29 29 29 29
Wind_Direction
278 278 277 276 277 277 278 279 280 281 280 280 279 280 280 280 280 280 280 281 280 279 279 279 278 277 276 277 277 277 277 276 276 276 277 277 276 276 276 275 273 270 267
280 279 278 277 277 277 277 278 278 279 280 281 279 280 279 279 280 280 281 281 280 279 279 279 277 276 275 276 276 276 276 276 276 275 276 276 277 276 275 274 272 270 268
279 279 279 279 278 277 276 277 278 279 279 280 279 279 279 280 281 281 280 281 281 280 279 279 277 275 274 275 275 275 276 276 275 275 275 275 275 275 274 273 271 269 268
281 280 280 280 279 278 277 277 278 279 279 279 279 280 281 281 281 281 282 282 282 281 280 279 277 276 274 274 274 275 276 276 276 275 274 274 275 274 272 271 270 269 267
282 283 283 282 281 279 278 278 278 279 278 279 279 281 281 282 282 282 282 283 283 281 280 279 277 276 274 274 273 273 274 275 274 275 274 273 273 273 271 270 268 267 267
284 284 285 284 282 281 280 279 279 278 278 279 279 280 281 282 282 282 282 282 282 281 280 279 277 277 276 274 274 272 273 274 273 272 272 271 271 270 270 269 268 266 265
284 285 285 285 284 282 282 281 279 278 278 279 279 279 280 282 282 283 282 281 280 281 281 280 278 277 277 276 274 272 272 274 273 271 270 269 270 269 269 269 268 266 265
283 283 284 285 284 284 282 281 281 280 278 278 279 279 279 281 282 281 281 280 280 280 280 280 279 277 276 275 274 272 273 273 273 271 270 269 269 268 268 268 268 267 266
282 284 285 286 286 284 283 282 281 281 281 280 279 280 280 280 281 280 280 280 279 279 279 279 279 277 275 275 274 273 272 272 271 270 269 270 270 269 269 269 269 268 267
283 283 284 285 286 286 284 283 282 282 282 280 280 280 280 280 279 279 279 278 277 277 278 278 279 278 277 276 275 273 273 272 271 270 269 269 269 270 270 270 269 268 267
284 284 284 285 285 285 285 283 283 283 282 281 281 281 280 280 279 278 278 277 277 276 277 277 277 277 277 276 277 275 274 273 272 271 269 269 269 269 269 269 268 267 265
285 286 286 286 286 285 285 284 285 284 283 281 281 280 279 279 279 278 277 277 276 276 276 277 278 277 277 277 277 276 275 273 272 271 270 269 269 269 268 268 268 267 266
287 287 287 287 286 285 285 285 285 284 282 282 281 280 280 280 279 278 276 276 275 275 276 276 276 276 277 277 278 277 276 274 273 272 271 271 270 270 269 268 267 266 265
287 287 288 287 286 285 285 284 284 283 282 281 281 280 279 279 279 277 277 276 276 275 275 275 275 276 276 276 276 276 275 274 274 272 271 271 271 270 270 269 267 266 265
287 287 287 288 287 287 287 287 286 285 283 281 281 281 280 280 278 277 277 277 277 275 274 274 274 274 276 277 276 276 276 275 275 273 271 271 270 270 269 268 267 266 265
289 288 287 288 288 288 288 288 287 286 285 284 283 283 282 281 279 277 277 277 277 276 275 274 274 275 277 277 277 277 277 276 275 273 271 270 270 270 269 269 267 265 264
290 289 289 289 288 288 288 288 288 288 286 285 284 284 284 283 281 280 278 278 278 277 276 275 275 276 277 278 278 277 276 276 275 273 271 271 270 269 268 268 268 266 264
290 289 289 290 289 289 289 288 289 289 289 288 286 284 285 284 282 281 279 277 277 277 276 275 275 275 276 277 277 276 276 275 274 271 270 270 269 268 268 268 266 265 264
289 290 290 290 290 289 290 290 290 291 291 289 287 286 285 284 283 282 280 278 277 276 275 274 274 275 275 276 275 275 275 274 272 270 268 268 268 267 267 267 265 264 264
289 289 290 291 291 290 291 291 292 291 291 291 290 289 286 285 284 282 281 280 279 277 276 274 274 274 274 274 274 274 273 273 271 270 268 268 268 267 267 266 265 264 264
289 290 290 291 291 291 291 292 293 293 292 292 290 289 288 286 285 284 282 280 279 278 276 275 274 273 273 273 273 273 272 272 270 269 268 267 267 266 266 265 265 265 264
289 290 290 291 292 292 292 292 293 294 293 293 291 290 288 287 287 285 283 281 279 278 277 276 275 273 273 272 272 273 272 272 270 268 267 266 266 265 265 265 264 265 264
290 290 291 291 291 292 292 292 293 293 293 293 293 291 290 289 288 287 286 285 283 280 279 277 276 275 273 272 272 271 270 269 268 267 267 266 265 265 264 264 264 264 264
289 290 291 291 291 292 292 292 293 293 293 293 293 292 291 290 289 288 288 287 284 282 280 279 278 277 275 273 271 270 269 269 269 268 265 264 263 264 263 262 262 263 263
289 290 291 291 291 291 292 293 293 293 294 293 292 292 291 291 290 289 288 286 284 282 280 279 279 278 277 275 273 271 270 269 268 266 265 263 262 263 262 261 261 263 263
291 291 291 291 291 291 292 292 293 293 294 293 293 292 291 291 292 291 290 287 285 282 279 278 277 277 276 275 275 273 272 270 268 265 263 262 262 262 262 262 261 262 264
Height
5803 5802 5801 5801 5800 5799 5799 5798 5797 5796 5795 5794 5793 5792 5791 5789 5788 5787 5786 5784 5783 5781 5780 5778 5777 5776 5775 5774 5773 5772 5771 5771 5770 5769 5768 5767 5766 5765 5764 5763 5762 5762 5762
5796 5795 5794 5793 5793 5792 5791 5790 5789 5788 5787 5786 5785 5784 5783 5782 5780 5779 5777 5776 5774 5773 5771 5770 5769 5767 5766 5766 5765 5764 5763 5762 5762 5761 5760 5759 5758 5757 5756 5755 5755 5754 5754
5789 5788 5787 5786 5785 5784 5783 5782 5781 5780 5779 5778 5777 5776 5774 5773 5772 5770 5769 5767 5765 5764 5762 5761 5760 5758 5758 5757 5756 5755 5754 5753 5753 5752 5751 5750 5749 5748 5748 5747 5747 5746 5746
5782 5780 5779 5778 5776 5775 5774 5773 5772 5771 5770 5769 5768 5767 5766 5764 5763 5761 5759 5758 5756 5754 5753 5751 5750 5749 5748 5747 5746 5745 5745 5744 5743 5743 5742 5741 5741 5740 5739 5739 5739 5738 5738
5774 5773 5771 5769 5768 5767 5765 5764 5763 5762 5761 5760 5759 5758 5756 5755 5754 5752 5750 5748 5746 5744 5743 5741 5740 5739 5738 5737 5736 5736 5735 5734 5734 5733 5733 5732 5732 5731 5730 5730 5730 5730 5730
5766 5765 5763 5761 5759 5758 5756 5755 5754 5753 5752 5750 5749 5748 5747 5745 5744 5742 5740 5738 5736 5734 5733 5731 5730 5729 5728 5727 5726 5726 5725 5724 5724 5724 5723 5723 5722 5722 5721 5721 5721 5721 5721
5758 5756 5754 5752 5751 5749 5747 5745 5744 5743 5742 5741 5739 5738 5736 5735 5733 5731 5729 5728 5726 5724 5723 5721 5720 5719 5718 5717 5716 5715 5715 5714 5714 5714 5713 5713 5713 5713 5712 5712 5712 5712 5712
5749 5747 5745 5743 5741 5739 5738 5736 5734 5733 5731 5730 5729 5727 5726 5724 5722 5721 5719 5717 5715 5713 5712 5711 5709 5708 5707 5706 5706 5705 5704 5704 5704 5703 5703 5703 5703 5702 5702 5702 5701 5702 5702
5740 5738 5736 5734 5731 5729 5727 5726 5724 5722 5721 5719 5717 5716 5714 5713 5711 5709 5707 5706 5704 5703 5702 5700 5699 5698 5697 5696 5695 5694 5694 5693 5693 5692 5692 5692 5692 5691 5691 5691 5691 5691 5692
5730 5728 5726 5724 5721 5719 5717 5715 5713 5712 5710 5708 5706 5705 5703 5702 5700 5698 5696 5695 5693 5692 5691 5690 5688 5687 5686 5684 5684 5683 5682 5682 5681 5681 5681 5681 5680 5680 5680 5680 5680 5680 5680
5720 5718 5716 5713 5711 5709 5707 5705 5702 5701 5699 5697 5695 5693 5692 5690 5688 5686 5684 5683 5682 5681 5679 5678 5677 5676 5675 5673 5672 5671 5671 5670 5669 5669 5669 5668 5668 5668 5668 5668 5668 5668 5669
5710 5707 5705 5703 5700 5698 5696 5693 5691 5689 5687 5685 5683 5682 5680 5678 5676 5674 5673 5671 5670 5669 5668 5667 5666 5664 5663 5662 5661 5660 5659 5657 5657 5656 5656 5656 5656 5656 5656 5656 5656 5656 5657
5699 5697 5694 5692 5689 5687 5684 5682 5680 5678 5675 5673 5671 5670 5668 5666 5664 5662 5661 5660 5658 5657 5657 5656 5655 5653 5652 5650 5649 5648 5647 5646 5645 5645 5645 5645 5644 5644 5644 5644 5644 5644 5645
5688 5686 5683 5680 5678 5675 5673 5670 5668 5666 5664 5662 5660 5658 5656 5654 5652 5650 5649 5648 5647 5646 5645 5644 5643 5642 5640 5639 5637 5636 5635 5634 5634 5633 5633 5633 5633 5632 5632 5632 5632 5632 5633
5677 5675 5672 5669 5667 5664 5662 5659 5657 5654 5652 5650 5648 5646 5644 5642 5640 5638 5637 5636 5635 5634 5633 5632 5631 5630 5629 5627 5626 5625 5624 5623 5622 5622 5622 5621 5621 5621 5621 5620 5620 5621 5621
5666 5664 5661 5659 5656 5653 5651 5648 5645 5643 5641 5638 5636 5634 5632 5631 5628 5627 5625 5624 5623 5621 5620 5619 5618 5618 5617 5616 5615 5613 5612 5612 5611 5610 5610 5610 5610 5610 5609 5609 5609 5609 5610
5656 5654 5651 5648 5646 5643 5640 5638 5635 5633 5630 5628 5625 5623 5621 5619 5617 5615 5614 5612 5611 5609 5608 5608 5607 5606 5605 5604 5603 5602 5601 5600 5599 5599 5599 5599 5598 5598 5598 5598 5598 5598 5599
5646 5643 5641 5638 5636 5633 5630 5628 5625 5622 5620 5617 5614 5612 5610 5608 5606 5604 5602 5600 5599 5598 5597 5596 5595 5595 5594 5593 5591 5590 5589 5589 5588 5588 5588 5587 5587 5587 5587 5588 5588 5588 5588
5636 5634 5631 5628 5626 5623 5620 5617 5615 5612 5609 5606 5604 5601 5599 5597 5595 5592 5590 5589 5587 5586 5585 5584 5583 5582 5582 5581 5579 5578 5577 5577 5576 5576 5576 5576 5576 5576 5577 5577 5577 5577 5578
5626 5624 5621 5618 5616 5613 5610 5608 5605 5602 5599 5596 5593 5591 5588 5586 5584 5581 5579 5577 5576 5575 5573 5572 5571 5570 5569 5568 5567 5567 5566 5565 5565 5564 5565 5565 5565 5565 5565 5566 5566 5566 5567
5616 5613 5611 5608 5605 5602 5600 5597 5594 5591 5588 5585 5583 5580 5577 5575 5572 5570 5568 5566 5564 5563 5561 5560 5558 5557 5557 5556 5555 5555 5554 5554 5553 5553 5553 5553 5553 5554 5554 5554 5555 5555 5556
5606 5603 5601 5598 5595 5592 5589 5586 5584 5581 5578 5575 5572 5569 5566 5564 5561 5559 5557 5555 5553 5551 5549 5548 5546 5545 5544 5544 5543 5542 5542 5541 5541 5541 5541 5542 5542 5543 5543 5544 5544 5545 5545
5595 5593 5590 5587 5585 5582 5579 5576 5573 5570 5567 5564 5561 5558 5555 5552 5550 5548 5546 5543 5541 5539 5537 5536 5534 5533 5532 5532 5531 5530 5530 5530 5530 5530 5530 5531 5532 5532 5533 5533 5534 5534 5535
5585 5582 5579 5577 5574 5571 5568 5565 5562 5559 5556 5553 5550 5547 5544 5542 5539 5537 5535 5532 5530 5528 5526 5524 5523 5522 5521 5520 5519 5518 5518 5518 5518 5519 5519 5520 5521 5521 5522 5523 5523 5524 5524
5574 5571 5569 5566 5563 5560 5557 5554 5551 5548 5545 5542 5539 5536 5534 5531 5529 5526 5524 5521 5519 5517 5515 5513 5512 5511 5509 5509 5508 5508 5507 5507 5507 5508 5508 5509 5510 5511 5512 5512 5513 5514 5514
5563 5560 5558 5555 5552 5549 5546 5543 5540 5537 5534 5531 5528 5525 5523 5521 5518 5516 5513 5510 5508 5506 5504 5503 5502 5501 5499 5499 5498 5497 5497 5497 5497 5497 5497 5499 5500 5500 5501 5502 5503 5504 5505